Tracking 19489 objects as of 23-Jan-2019
HD Live streaming from Space Station
objects crossing your sky now

COSMOS 2316 (GLONASS)

Track COSMOS 2316 (GLONASS) now!
COSMOS 2316 (GLONASS) is classified as:


NORAD ID: 23620
Int'l Code: 1995-037A
Perigee: 19,101.5 km
Apogee: 19,172.7 km
Inclination: 66.0 °
Period: 675.7 minutes
Semi major axis: 25508 km
RCS: 3.4616 m2 (large)
Launch date: July 24, 1995
Source: Commonwealth of Independent States (former USSR) (CIS)
Launch site: TYURATAM MISSILE AND SPACE COMPLEX (TTMTR)
SV:
aabbcc
Your satellite tracking list
Your tracking list is empty




NASA's NSSDC Master Catalog

Two Line Element Set (TLE):
1 23620U 95037A   19022.09529306  .00000012  00000-0  00000+0 0  9997
2 23620  66.0383 291.1053 0013947 161.4595  42.9817  2.13101382182897
Source of the keplerian elements: AFSPC